Richmond, VA

8:41 PM EDT on April 22, 2018 (GMT -0400)
Richmond International

Weather History for KRIC - October, 2012

Change the Weather History Date:

Friday, October 5, 2012

  Actual Average Record
Temperature  
Mean Temperature 72 °F 63 °F  
Max Temperature 82 °F 74 °F 97 °F (1941)
Min Temperature 61 °F 52 °F 32 °F (1965)
Degree Days  
Heating Degree Days 0 4  
Month to date heating degree days 2 17  
Since 1 July heating degree days 13 46  
Cooling Degree Days 7 2  
Month to date cooling degree days 41 12  
Year to date cooling degree days 1730 1516  
Growing Degree Days 22 (Base 50)    
Moisture  
Dew Point 59 °F    
Average Humidity 70    
Maximum Humidity 100    
Minimum Humidity 39    
Precipitation  
Precipitation 0.00 in 0.10 in 2.12 in (1948)
Month to date precipitation 0.21 0.49  
Year to date precipitation 29.63 34.61  
Snow  
Snow 0.00 in 0.00 in 0.00 in (2002)
Month to date snowfall 0.0 0.0  
Since 1 July snowfall 0.0 0.0  
Snow Depth 0.00 in    
Sea Level Pressure  
Sea Level Pressure 30.10 in    
Wind  
Wind Speed 3 mph (SSW)    
Max Wind Speed 12 mph    
Max Gust Speed 15 mph    
Visibility 10 miles    
Events      
T = Trace of Precipitation, MM = Missing Value Source: NWS Daily Summary

Daily Weather History Graph

Daily Weather History Graph

Search for Another Location

Airport or City:

Astronomy

Oct. 05, 2012 Rise Set
Actual Time 7:08 AM EDT 6:45 PM EDT
Civil Twilight 6:42 AM EDT 7:11 PM EDT
Nautical Twilight 6:12 AM EDT 7:42 PM EDT
Astronomical Twilight 5:41 AM EDT 8:12 PM EDT
Moon 10:13 PM EDT (10/5) 12:09 PM EDT (10/5)
Length of Visible Light 12h 29m
Length of Day
11h 37m
Waning Gibbous, 74% of the Moon is Illuminated
Oct 5
Waning Gibbous
Oct 8
Last Quarter
Oct 15
New
Oct 21
First Quarter
Oct 29
Full

Hourly Weather History & Observations

Time (EDT) Temp. Heat Index Dew Point Humidity Pressure Visibility Wind Dir Wind Speed Gust Speed Precip Events Conditions
12:54 AM 66.0 °F - 64.0 °F 93% 30.15 in 10.0 mi Calm Calm - N/A   Mostly Cloudy
1:54 AM 66.0 °F - 64.0 °F 93% 30.15 in 10.0 mi Calm Calm - N/A   Mostly Cloudy
2:54 AM 66.0 °F - 64.0 °F 93% 30.15 in 10.0 mi NW 5.8 mph - N/A   Scattered Clouds
3:54 AM 64.0 °F - 63.0 °F 96% 30.15 in 10.0 mi Calm Calm - N/A   Scattered Clouds
4:54 AM 63.0 °F - 62.1 °F 97% 30.16 in 10.0 mi Calm Calm - N/A   Scattered Clouds
5:54 AM 63.0 °F - 61.0 °F 93% 30.17 in 9.0 mi NNW 3.5 mph - N/A   Partly Cloudy
6:54 AM 62.1 °F - 59.0 °F 90% 30.16 in 10.0 mi Calm Calm - N/A   Partly Cloudy
7:54 AM 63.0 °F - 59.0 °F 87% 30.16 in 10.0 mi Calm Calm - N/A   Partly Cloudy
8:54 AM 66.0 °F - 62.1 °F 87% 30.17 in 10.0 mi Calm Calm - N/A   Partly Cloudy
9:54 AM 73.0 °F - 59.0 °F 61% 30.17 in 10.0 mi NNW 3.5 mph - N/A   Partly Cloudy
10:54 AM 78.1 °F - 57.9 °F 50% 30.17 in 10.0 mi Calm Calm - N/A   Partly Cloudy
11:54 AM 80.1 °F 80.1 °F 55.0 °F 42% 30.15 in 10.0 mi Variable 3.5 mph - N/A   Partly Cloudy
12:54 PM 80.1 °F 80.0 °F 54.0 °F 40% 30.12 in 10.0 mi Calm Calm - N/A   Scattered Clouds
1:54 PM 81.0 °F 80.5 °F 54.0 °F 39% 30.09 in 10.0 mi South 8.1 mph - N/A   Scattered Clouds
2:54 PM 80.1 °F 80.0 °F 54.0 °F 40% 30.06 in 10.0 mi SSW 6.9 mph - N/A   Scattered Clouds
3:54 PM 80.1 °F 80.0 °F 54.0 °F 40% 30.05 in 10.0 mi Variable 4.6 mph - N/A   Scattered Clouds
4:54 PM 80.1 °F 80.1 °F 55.0 °F 42% 30.04 in 10.0 mi SSW 9.2 mph - N/A   Scattered Clouds
5:54 PM 77.0 °F - 57.0 °F 50% 30.04 in 10.0 mi South 6.9 mph - N/A   Scattered Clouds
6:54 PM 71.1 °F - 59.0 °F 66% 30.04 in 10.0 mi South 5.8 mph - N/A   Scattered Clouds
7:54 PM 69.1 °F - 60.1 °F 73% 30.03 in 10.0 mi Calm Calm - N/A   Partly Cloudy
8:54 PM 66.9 °F - 60.1 °F 79% 30.03 in 10.0 mi Calm Calm - N/A   Partly Cloudy
9:54 PM 66.0 °F - 60.1 °F 81% 30.03 in 10.0 mi SSE 3.5 mph - N/A   Clear
10:54 PM 62.1 °F - 57.9 °F 86% 30.02 in 10.0 mi Calm Calm - N/A   Clear
11:54 PM 63.0 °F - 59.0 °F 87% 30.01 in 10.0 mi SSW 4.6 mph - N/A   Clear